STARLINK-30512, 57976

Orbit data source: Space-Track

STARLINK-30512, 57976 is a payload satellite owned by SpaceX/Seattle (US) in LEO that was launched on Sat, 30 Sep 2023 UTC via an FALCON 9 launch vehicle from the Air Force Eastern Test Range (AFETR). Payload-class satellites include a variety of spacecraft equipped with specific instruments for various scientific and technological missions. These include communications satellites like Starlink; space stations such as the ISS; scientific satellites like the Hubble; Earth observation satellites from companies like Planet Labs, Umbra, and HawkEye 360; GPS; miniature CubeSats for education and research; and military/defense satellites.

Loading next visibility...
Identifier
57976, 2023-151N
Orbit
LEO
Country
Flag of USUS
Related business
Manufacturer
SpaceX/Seattle
Mission
Operational Commercial Communications
Bus & Motor
STARLINK V2M, Unknown motor
Mass
730 kg wet, ~700 kg dry
Launch date (UTC)
2023-09-30 (3 years ago)
Launch vehicle
FALCON 9
Launch site
Air Force Eastern Test Range (AFETR)
Object type
Payload
Rocket body
Debris
Shape & HBR
Box + 2 Pan, 17.7 m
Radar Cross Section
33.884 m², Large (>1 m²)

Expand to show TLE details & history
Last TLE update: 14 hours ago

TLE from 14 hours ago
0 STARLINK-30512
1 57976U 23151N   26236.90181999  .00000285  00000-0  19897-4 0  9994
2 57976  43.0042 105.8498 0001562 268.5625  91.5048 15.27576386161490
Epoch: 2026-08-24T21:38Z
TLE epoch observation values (Epoch: 2026-08-24T21:38:37.247Z)
Latitude
0.00001°
Longitude
168.01775°
Altitude
482.864 km
Speed
7.626 km/s
True Right ascension
07h 03m 23s
True Declination
0° 00' 00"
Sunlit
Object was in daylight at epoch
Visualization orbit readout
Latitude
Unknown
Longitude
Unknown
Altitude
Unknown
Speed
Unknown
Apparent Right ascension
Unknown
Apparent Declination
Unknown
Sunlit
N/A
Visualization observer readout
Local Sidereal Time
02:29:45
Azimuth
Unknown
Elevation
Unknown
Doppler factor
Unknown
Orbital elements
Apogee altitude
486.076 km
Perigee altitude
483.932 km
Semi-major axis
6,863.141 km
Eccentricity
0.00016
Inclination
43.0042°
RAAN
105.8498°
Arg. of periapsis
268.5625°
True anomaly
91.52269°
Mean anomaly
91.5048°
Eccentric anomaly
91.51375°
Mean motion
3.81732 °/min
Orbital period
94.31 mins
BSTAR
0.000019897
Loading maneuver chart data...
Computing Atmospheric mass density...
Loading historical data...
Loading historical data...
Loading historical data...
Loading historical data...
Loading historical data...
Loading historical data...
Loading historical data...

Documentation

Showing up to 5 results
|